www.pogodaiklimat.ru

Погода и климат >> Архив погоды >> Россия >> Ямало-Ненецкий АО >> Мужи


ПОГОДА в Мужах

  • Прогноз погоды в Мужах
  • Монитор погоды в Мужах

АРХИВ ПОГОДЫ в Мужах

Время (UTC), дата Ветер
(напр.,м/с)
 
Видим.   Явления Облачность Т
(С)
Тd
(С)
f
(%)
Тe
(С)
Тes
(С)
Комфортность P
(гПа)
Po
(гПа)
Тmin
(С)
Tmax
(С)
R
(мм)
R24
(мм)
S
(см)
09 14.07 ЮЗ 5 45 км 8/8 600 м
[Cb cap]
+25.3 +18.8 67 +30 +31 душно 1008.0 1005.9
12 14.07 С 4
{10}
40 км 8/8 600 м
[Cb cap]
+23.0 +18.7 77 +29 +30 очень
душно
1008.9 1006.8
15 14.07 С 3 15 км гроза, ливневой дождь 8/8 600 м
[Cb cap]
+18.7 +16.7 88 +20 +20 1009.0 1006.9 +26.4 0.8
18 14.07 С 4
{13}
40 км гроза без осадков {ливн. осадки} 8/3 600 м
[Cb cap Ac As Ci ing]
+18.0 +16.5 91 +18 +18 1006.7 1004.6
21 14.07 С 3
{10}
40 км в посл. час гроза 10/6 600 м
[Cb cap Ac As]
+17.8 +15.6 87 +18 +18 1005.4 1003.2
00 15.07 штиль 0 45 км {гроза, ливн. осадки} 8/4 600 м
[Cb cap Ci ing]
+16.4 +16.4 100 +16 +17 1004.8 1002.7
03 15.07 СЗ 2 60 км 3/3 1000 м
[Sc]
+20.0 +18.0 88 +24 +27 комфорт 1006.0 1003.9 +15.8 0.4
06 15.07 С 4 45 км 8/8 600 м
[Cb cap]
+20.2 +18.0 87 +24 +25 комфорт 1007.4 1005.3
09 15.07 С 4 50 км 8/6 600 м
[Cb cap Ci fib]
+20.9 +17.1 79 +25 +27 комфорт 1009.0 1006.9
12 15.07 С 4 65 км 4/3 600 м
[Cu hum Ci fib]
+20.3 +13.7 66 +23 +25 комфорт 1010.5 1008.3
15 15.07 С 4 60 км 6/4 600 м
[Cu hum Ci fib]
+19.6 +14.0 70 +21 +22 комфорт 1011.2 1009.0 +22.4
18 15.07 С 4 >70 км 9/9 1000 м
[Sc]
+16.4 +12.5 78 +16 +16 1011.6 1009.4
21 15.07 СВ 6-10
{10}
>70 км гроза без осадков 10/10 600 м
[Cb cap]
+16.5 +14.2 86 +15 +15 1011.6 1009.4
00 16.07 СВ 6-11
{13}
65 км в посл. час гроза {ливн. осадки} 9/9 600 м
[Cb cap]
+14.1 +13.0 93 +12 +12 1012.1 1009.9
03 16.07 СЗ 5
{11}
>70 км 10/10 600 м
[Cb cap]
+13.9 +12.2 89 +12 +12 1011.4 1009.2 +13.6 14
06 16.07 СВ 6
{11}
>70 км 10/10 1000 м
[Sc]
+14.4 +12.6 89 +12 +12 1010.4 1008.2 +13.4
09 16.07 СЗ 6
{11}
>70 км 10/8 1000 м
[Sc Ci fib]
+19.1 +15.7 81 +20 +21 1008.8 1006.6
12 16.07 С 5
{11}
45 км 10/3 600 м
[Cu hum Ci fib]
+20.2 +16.7 80 +23 +25 комфорт 1007.8 1005.7
15 16.07 С 4
{10}
50 км 10/0
[Ci fib]
+21.4 +18.2 82 +26 +26 душно 1006.8 1004.7 +21.5
18 16.07 С 3
{10}
>70 км 4/0
[Ci fib]
+18.7 +18.0 96 +20 +20 1005.6 1003.5
21 16.07 С 1 60 км 3/0
[Ci fib]
+19.0 +18.0 94 +22 +22 комфорт 1005.7 1003.6
00 17.07 С 2 60 км 3/0
[Ci fib]
+18.9 +18.7 99 +21 +22 комфорт 1006.5 1004.3
03 17.07 С 3 45 км 8/8 600 м
[Cu med, cong]
+21.5 +20.1 92 +27 +28 душно 1006.4 1004.2 +18.3
06 17.07 С 3 40 км 6/1 600 м
[Cu hum Ci fib]
+26.1 +21.7 77 +34 +40 очень
душно
1006.1 1004.0
09 17.07 Ю 2 24 км 6/0
[Ci fib]
+30.8 +18.1 47 +35 +45 очень
душно
1006.2 1004.1
12 17.07 ЮВ 2 29 км 10/3 600 м
[Cu hum Ci sp]
+26.8 +17.2 56 +31 +34 душно 1006.9 1004.8
15 17.07 Ю 1
{11}
27 км {гроза, ливн. осадки} 9/9 600 м
[Cb cap]
+21.0 +20.0 94 +27 +27 душно 1008.2 1006.0 +30.8 1
18 17.07 С 2
{11}
30 км {гроза, ливн. осадки} 10/10 600 м
[Cb cap]
+19.7 +19.7 100 +23 +23 комфорт 1007.9 1005.7
21 17.07 С 3 28 км 10/10 1000 м
[Sc]
+19.8 +19.8 100 +23 +23 комфорт 1007.3 1005.2
00 18.07 С 3 26 км 10/10 600 м
[Sc]
+19.7 +19.7 100 +23 +23 комфорт 1007.2 1005.0
03 18.07 С 3 25 км 10/10 300 м
[St]
+20.6 +20.3 98 +25 +25 комфорт 1006.7 1004.5 +19.6 2
06 18.07 С 4 18 км дым 10/10 300 м
[St]
+22.6 +20.7 89 +29 +29 очень
душно
1006.4 1004.3
09 18.07 З 3 15 км гроза, ливневой дождь 10/10 300 м
[Cb cap]
+21.0 +20.0 94 +26 +26 душно 1006.8 1004.6
12 18.07 Ю 1 30 км {гроза, ливн. осадки} 10/8 300 м
[Cb cap Ac As]
+21.0 +20.8 99 +27 +28 душно 1007.2 1005.0
15 18.07 Ю 2 50 км 4/1 600 м
[Cu hum Ac trans Ci fib]
+21.5 +16.9 75 +25 +26 комфорт 1008.3 1006.1 +23.3 12
18 18.07 Ю 1 65 км 3/1 600 м
[Cu hum Ac As]
+16.0 +15.4 96 +17 +17 1008.7 1006.5
21 18.07 ЮЗ 1 70 км 4/4 300 м
[St]
+15.0 +14.5 97 +15 +15 1008.9 1006.7
00 19.07 ЮЗ 1 >70 км 10/10 600 м
[Cu Sc]
+15.4 +15.4 100 +16 +16 1009.8 1007.6
03 19.07 ЮВ 1 >70 км 6/6 600 м
[Cu med, cong]
+18.1 +15.5 85 +19 +21 1009.7 1007.5 +14.0
06 19.07 Ю 2 >70 км 10/10 600 м
[Cu Sc]
+19.3 +15.1 77 +21 +21 комфорт 1009.9 1007.7
09 19.07 Ю 3 >70 км 10/8 600 м
[Cu Sc Ci fib]
+20.9 +14.8 68 +24 +26 комфорт 1009.9 1007.7
12 19.07 Ю 3 >70 км 10/8 600 м
[Cu Sc Ci fib]
+19.5 +14.3 72 +21 +22 комфорт 1010.4 1008.2
15 19.07 Ю 2 >70 км 10/8 600 м
[Cu Sc Ac As]
+18.9 +14.3 75 +21 +21 комфорт 1010.4 1008.2 +21.2
18 19.07 ЮЗ 2 17 км слаб. дождь 10/0
[As op]
+15.8 +15.4 97 +16 +16 1010.7 1008.5
21 19.07 ЮЗ 1 >70 км {дождь} 10/0
[As op]
+14.4 +14.4 100 +15 +15 1011.0 1008.8
00 20.07 ЮЗ 2 >70 км {дождь} 8/8 600 м
[Sc]
+13.6 +13.5 99 +13 +13 1012.0 1009.8
03 20.07 Ю 2 60 км 10/0
[As op]
+14.4 +13.1 92 +14 +15 1012.6 1010.4 +13.5 0.4
06 20.07 Ю 3 >70 км 10/10 1000 м
[Sc]
+16.8 +12.7 77 +17 +17 1012.4 1010.2
09 20.07 ЮЗ 2 >70 км 10/10 1000 м
[Sc]
+18.6 +13.3 71 +20 +20 1012.5 1010.3
12 20.07 ЮЗ 3 >70 км 8/8 600 м
[Cu Sc]
+21.2 +14.6 66 +24 +25 комфорт 1012.1 1010.0
15 20.07 ЮВ 1 60 км 8/3 1000 м
[Sc Ci sp]
+20.8 +16.2 75 +25 +26 комфорт 1012.3 1010.2 +22.1
18 20.07 З 1 65 км 8/0
[Ac trans Ci sp]
+16.2 +16.2 100 +17 +17 1012.1 1009.9
21 20.07 ЮЗ 1 >70 км 10/0
[Ac As]
+15.4 +15.4 100 +16 +16 1012.5 1010.3
00 21.07 штиль 0 >70 км 9/0
[Ac As]
+16.2 +16.2 100 +16 +16 1012.6 1010.4
03 21.07 С 2 60 км 9/0
[As op]
+18.4 +17.6 95 +20 +21 1012.4 1010.2 +14.9

 

Местоположение метеостанции Мужи (Ямало-Ненецкий АО, Россия): широта 65.38 долгота 64.72 высота над уровнем моря 19 м.

В архиве по умолчанию представлена погода в Мужах за последнюю неделю. Архивные данные за месяц целиком и за предыдущие месяцы, начиная с января 2011 года, Вы можете получить, выбрав интересующий диапазон дат из раскрывающегося списка и нажав кнопку "Ввод!".


*Определитесь, кто Вы:
робот инопланетянин человек

Внимание! Время в таблицах - всемирное. Для получения местного времени необходимо прибавить поправку, которая равна 5 ч.

Смотрите также архив погоды в соседних городах и на ближайших метеорологических станциях:

Погода в Питляре (Ямало-Ненецкий АО, Россия) (75 км)
Погода в Салехарде (Ямало-Ненецкий АО, Россия) (155 км)
Погода в Березово (Ханты-Мансийский АО, Россия) (163 км)
Погода в Харпе (Ямало-Ненецкий АО, Россия) (165 км)
Погода в Елецкой (Коми, Россия) (188 км)
Погода в Полуе (Ямало-Ненецкий АО, Россия) (195 км)
Погода в Петруни (Коми, Россия) (214 км)
Погода в Саранпауле (Ханты-Мансийский АО, Россия) (219 км)
Погода в Казым-Мысе (Ханты-Мансийский АО, Россия) (220 км)
Погода в Казыме (Ханты-Мансийский АО, Россия) (220 км)

Пояснения к столбцам:

Ветер - указаны скорость ветра в м/с - средняя за 10 мин, порывы в срок и между сроками (в фигурных скобках) и направление, откуда дует ветер: С - северный, СВ - северо-восточный, В - восточный, ЮВ - юго-восточный, Ю - южный, ЮЗ - юго-западный, З - западный, СЗ - северо-западный.
Видимость - горизонтальная дальность видимости в метрах или километрах. При видимости от 1 до 10 км при отсутствии осадков обычно наблюдается дымка, при ухудшении видимости до 1 км и менее - туман. В сухую погоду видимость может ухудшаться дымом, пылью или мглою.
Явления - указаны атмосферные явления, наблюдавшиеся в срок или в последний час перед сроком; фигурными скобками обозначены явления, наблюдавшиеся между сроками (за 1-3 часа до срока); квадратными скобками обозначены град или гололедные отложения с указанием их диаметра в мм.
Облачность - указаны через наклонную черту общая и нижняя облачность в баллах и высота нижней границы облаков в метрах; квадратными скобками обозначены формы облаков: Ci - перистые, Cs - перисто-слоистые, Cc - перисто-кучевые, Ac - высококучевые, As - высокослоистые, Sc - слоисто-кучевые, Ns - слоисто-дождевые, Cu - кучевые, Cb - кучево-дождевые. Подробнее классификацию облаков см. в Атласе облаков (PDF).
T - Температура воздуха - температура, измеренная на высоте 2 м над землей.
Td - Температура точки росы - температура, при понижении до которой содержащийся в воздухе водяной пар достигнет насыщения.
f - Относительная влажность воздуха - влажноcть воздуха, измеренная на высоте 2 м над землей.
Te - Эффективная температура - температура, которую ощущает одетый по сезону человек в тени. Характеристика душности погоды. При расчете учитывается влияние влажности воздуха и скорости ветра на теплоощущения человека.
Tes - Эффективная температура на солнце - температура, которую ощущает человек, с поправкой на солнечный нагрев. Характеристика знойности погоды. Зависит от высоты солнца над горизонтом, облачности и скорости ветра. Ночью, в пасмурную погоду, а также при ветре 12 м/с и более поправка равна нулю.
P - Атмосферное давление - приведенное к уровню моря атмосферное давление.
Po - Атмосферное давление - измеренное на уровне метеостанции атмосферное давление.
Tmin - Минимальная температура - минимум температуры воздуха на высоте 2 м над землей.
Tmax - Максимальная температура - максимум температуры воздуха на высоте 2 м над землей.
R - Количество осадков - Количество выпавших осадков за период времени, мм. При наведении курсора мыши на число - период времени, за который выпало указанное количество осадков.
R24 - Количество осадков - Количество выпавших осадков за 24 часа, мм.
S - Снежный покров - Высота снежного покрова, см. При наведении курсора мыши на число - состояние снежного покрова и степень покрытия местности в баллах.